Harrow, Ontario

3:39 PM EST on January 21, 2018 (GMT -0500)
Harrow

Weather History for CXHA - May, 2013

Change the Weather History Date:

Friday, May 17, 2013

  Actual Average (CYQG) Record (CYQG)
Temperature  
Mean Temperature 58 °F -  
Max Temperature 69 °F 65 °F 87 °F (1999)
Min Temperature 46 °F 48 °F 41 °F (2002)
Degree Days  
Heating Degree Days 8    
Growing Degree Days 8 (Base 50)    
Moisture  
Dew Point 40 °F    
Average Humidity 52    
Maximum Humidity 83    
Minimum Humidity 26    
Precipitation  
Precipitation 0.00 in - - ()
Sea Level Pressure  
Sea Level Pressure 30.09 in    
Wind  
Wind Speed 6 mph ()    
Max Wind Speed 10 mph    
Max Gust Speed -    
Averages and records for this station are not official NWS values.
T = Trace of Precipitation, MM = Missing Value Source: Averaged Metar Reports

Daily Weather History Graph

Daily Weather History Graph

Search for Another Location

Airport or City:

Trip Planner

Search our weather history database for the weather conditions in past years. The results will help you decide how hot, cold, wet, or windy it might be!

Date:

Astronomy

May. 17, 2013 Rise Set
Actual Time 6:08 AM EDT 8:47 PM EDT
Civil Twilight 5:36 AM EDT 9:20 PM EDT
Nautical Twilight 4:56 AM EDT 10:00 PM EDT
Astronomical Twilight 4:10 AM EDT 10:46 PM EDT
Moon 12:43 PM EDT (5/17) 1:37 AM EDT (5/17)
Length of Visible Light 15h 43m
Length of Day
14h 38m
Waxing Crescent, 45% of the Moon is Illuminated
May 17
Waxing Crescent
May 18
First Quarter
May 25
Full
May 31
Last Quarter
Jun 8
New

Hourly Weather History & Observations

Time (EDT) Temp. Dew Point Humidity Pressure Visibility Wind Dir Wind Speed Gust Speed Precip Events Conditions
12:00 AM 54.7 °F 40.6 °F 59% 29.99 in - NNE 8.1 mph - N/A   Unknown
1:00 AM 51.4 °F 41.9 °F 70% 30.01 in - NNE 8.1 mph - N/A   Unknown
2:00 AM 50 °F 42 °F 65% 30.01 in - NNE 5.8 mph - -  
2:00 AM 50.0 °F 41.9 °F 74% 30.01 in - NNE 5.8 mph - N/A   Unknown
3:00 AM 48.7 °F 42.4 °F 79% 30.02 in - NE 4.6 mph - N/A   Unknown
4:00 AM 48.4 °F 42.1 °F 79% 30.04 in - NNE 4.6 mph - N/A   Unknown
5:00 AM 47.3 °F 42.4 °F 83% 30.04 in - NE 4.6 mph - N/A   Unknown
6:00 AM 47.3 °F 42.3 °F 83% 30.07 in - NE 4.6 mph - N/A   Unknown
7:00 AM 48.4 °F 41.5 °F 77% 30.09 in - ENE 3.5 mph - N/A   Unknown
8:00 AM 54 °F 43 °F 57% 30.09 in - ENE 5.8 mph - -  
8:00 AM 54.0 °F 43.2 °F 67% 30.09 in - ENE 5.8 mph - N/A   Unknown
9:00 AM 57.4 °F 41.4 °F 55% 30.11 in - ENE 8.1 mph - N/A   Unknown
10:00 AM 60.1 °F 41.9 °F 51% 30.13 in - ENE 8.1 mph - N/A   Unknown
11:00 AM 63.5 °F 42.3 °F 46% 30.13 in - ENE 6.9 mph - N/A   Unknown
12:00 PM 65.8 °F 41.4 °F 41% 30.13 in - East 5.8 mph - N/A   Unknown
1:00 PM 66.7 °F 38.5 °F 35% 30.12 in - ENE 6.9 mph - N/A   Unknown
2:00 PM 67 °F 40 °F 26% 30.12 in - ENE 8.1 mph - -  
2:00 PM 67.1 °F 40.1 °F 37% 30.12 in - ENE 8.1 mph - N/A   Unknown
3:00 PM 67.6 °F 39.0 °F 35% 30.12 in - ENE 6.9 mph - N/A   Unknown
4:00 PM 68.0 °F 37.9 °F 33% 30.11 in - ENE 9.2 mph - N/A   Unknown
5:00 PM 69.1 °F 39.7 °F 34% 30.10 in - ENE 10.4 mph - N/A   Unknown
6:00 PM 68.2 °F 41.0 °F 37% 30.10 in - East 5.8 mph - N/A   Unknown
7:00 PM 64.0 °F 36.5 °F 36% 30.10 in - East 4.6 mph - N/A   Unknown
8:00 PM 60 °F 36 °F 30% 30.12 in - East 3.5 mph - -  
8:00 PM 60.3 °F 36.5 °F 41% 30.12 in - East 3.5 mph - N/A   Unknown
9:00 PM 57.4 °F 34.2 °F 42% 30.14 in - East 3.5 mph - N/A   Unknown
10:00 PM 57.4 °F 34.2 °F 42% 30.14 in - ENE 6.9 mph - N/A   Unknown
11:00 PM 58.3 °F 37.6 °F 46% 30.13 in - ENE 5.8 mph - N/A   Unknown